This demonstration page uses our WeatherBlox Daily Observations layout. Learn more.

Left ArrowRight Arrow

39.12711, -84.51439

Hourly Observations for October 17, 2021

Temp ( °F °C ) Dew Point ( °F °C ) Humidity (%) Winds ( mph kmh ) Pressure ( in mb ) Visibility ( mi km ) Precip ( " mm )
12:53 am 00:53 Clear 50 10 40 4.4 68 68 W 9 15 30.14 1021 10 16 N/A
1:53 am 01:53 Clear 50 10 40 4.4 68 68 W 10 17 30.14 1021 10 16 N/A
2:53 am 02:53 Clear 48 8.9 40 4.4 74 74 W 7 11 30.14 1021 10 16 N/A
3:53 am 03:53 Clear 46 7.8 40 4.4 79 79 W 7 11 30.14 1021 10 16 N/A
4:53 am 04:53 Clear 42 5.6 41 5 96 96 N N/A 30.14 1021 10 16 N/A
5:53 am 05:53 Clear 42 5.6 41 5 96 96 N N/A 30.15 1021 10 16 N/A
6:53 am 06:53 Clear 41 5 40 4.4 96 96 N N/A 30.16 1022 10 16 N/A
7:53 am 07:53 Sunny 40 4.4 40 4.4 100 100 N N/A 30.17 1022 10 16 N/A
8:53 am 08:53 Sunny 46 7.8 42 5.6 86 86 SW 5 7 30.18 1022 10 16 N/A
9:53 am 09:53 Sunny 51 10.6 43 6.1 74 74 SSW 5 7 30.19 1022 10 16 N/A
10:53 am 10:53 Sunny 55 12.8 42 5.6 62 62 VRB 5 7 30.19 1022 10 16 N/A
11:53 am 11:53 Sunny 59 15 42 5.6 54 54 SSW 6 9 30.17 1022 10 16 N/A
12:53 pm 12:53 Sunny 63 17.2 40 4.4 43 43 WSW 9 15 30.17 1022 10 16 N/A
1:53 pm 13:53 Sunny 64 17.8 39 3.9 40 40 WSW 13 20 30.14 1021 10 16 N/A
2:53 pm 14:53 Sunny 66 18.9 39 3.9 37 37 W 12 19 30.11 1020 10 16 N/A
3:53 pm 15:53 Sunny 67 19.4 40 4.4 37 37 W 16 26 30.10 1019 10 16 N/A
4:53 pm 16:53 Sunny 67 19.4 43 6.1 42 42 W 8 13 30.09 1019 10 16 N/A
5:53 pm 17:53 Sunny 66 18.9 38 3.3 36 36 WNW 8 13 30.09 1019 10 16 N/A
6:53 pm 18:53 Sunny 63 17.2 39 3.9 41 41 W 5 7 30.10 1019 10 16 N/A
7:53 pm 19:53 Clear 53 11.7 47 8.3 80 80 S 5 7 30.12 1020 10 16 N/A
8:53 pm 20:53 Clear 50 10 45 7.2 83 83 N N/A 30.13 1020 10 16 N/A
9:53 pm 21:53 Clear 49 9.4 46 7.8 90 90 N N/A 30.15 1021 10 16 N/A
10:53 pm 22:53 Clear 47 8.3 46 7.8 97 97 N N/A 30.15 1021 10 16 N/A
11:53 pm 23:53 Clear 45 7.2 45 7.2 100 100 N N/A 30.16 1021 10 16 N/A

Powered by AerisWeather